Weather History for KLVS - December, 2012

Change the Weather History Date:

Tuesday, December 18, 2012

  Actual Average Record
Temperature  
Mean Temperature 40 °F -  
Max Temperature 53 °F 47 °F 67 °F (1979)
Min Temperature 28 °F 19 °F -2 °F (1996)
Degree Days  
Heating Degree Days 24    
Moisture  
Dew Point 16 °F    
Average Humidity 43    
Maximum Humidity 64    
Minimum Humidity 16    
Precipitation  
Precipitation 0.00 in - - ()
Sea Level Pressure  
Sea Level Pressure 29.67 in    
Wind  
Wind Speed 11 mph (SSW)    
Max Wind Speed 24 mph    
Max Gust Speed 32 mph    
Visibility 10 miles    
Events      
Averages and records for this station are not official NWS values.
T = Trace of Precipitation, MM = Missing Value Source: NWS Daily Summary

Daily Weather History Graph

Daily Weather History Graph

Search for Another Location

Airport or City:

Trip Planner

Search our weather history database for the weather conditions in past years. The results will help you decide how hot, cold, wet, or windy it might be!

Date:

Astronomy

Dec. 18, 2012 Rise Set
Actual Time 7:05 AM MST 4:49 PM MST
Civil Twilight 6:36 AM MST 5:18 PM MST
Nautical Twilight 6:04 AM MST 5:50 PM MST
Astronomical Twilight 5:33 AM MST 6:21 PM MST
Moon 10:57 AM MST (12/18) 11:06 PM MST (12/18)
Length of Visible Light 10h 41m
Length of Day
9h 44m
Waxing Crescent, 35% of the Moon is Illuminated
Dec 18
Waxing Crescent
Dec 19
First Quarter
Dec 28
Full
Jan 4
Last Quarter
Jan 11
New

Hourly Weather History & Observations

Time (MST) Temp. Windchill Dew Point Humidity Pressure Visibility Wind Dir Wind Speed Gust Speed Precip Events Conditions
12:53 AM 30.9 °F 22.2 °F 19.0 °F 61% 29.76 in 10.0 mi SSW 10.4 mph - N/A   Clear
1:53 AM 33.1 °F 25.5 °F 15.1 °F 48% 29.73 in 10.0 mi SW 9.2 mph - N/A   Clear
2:53 AM 28.9 °F 19.2 °F 16.0 °F 58% 29.74 in 10.0 mi South 11.5 mph - N/A   Clear
3:53 AM 32.0 °F 26.4 °F 15.1 °F 50% 29.71 in 10.0 mi Variable 5.8 mph - N/A   Clear
4:53 AM 37.0 °F 32.4 °F 12.0 °F 36% 29.70 in 10.0 mi SSW 5.8 mph - N/A   Clear
5:53 AM 37.0 °F - 12.9 °F 37% 29.72 in 10.0 mi Calm Calm - N/A   Clear
6:53 AM 30.0 °F 21.7 °F 17.1 °F 59% 29.76 in 10.0 mi SSE 9.2 mph - N/A   Clear
7:53 AM 37.9 °F - 14.0 °F 38% 29.74 in 10.0 mi Calm Calm - N/A   Clear
8:53 AM 42.1 °F 36.1 °F 17.1 °F 37% 29.72 in 10.0 mi SE 10.4 mph - N/A   Clear
9:53 AM 46.9 °F - 8.1 °F 21% 29.70 in 10.0 mi WSW 19.6 mph 26.5 mph N/A   Clear
10:53 AM 51.1 °F - 7.0 °F 17% 29.66 in 10.0 mi West 10.4 mph 19.6 mph N/A   Clear
11:53 AM 53.1 °F - 9.0 °F 17% 29.63 in 10.0 mi WNW 9.2 mph - N/A   Clear
12:53 PM 50.0 °F - 10.9 °F 21% 29.63 in 10.0 mi West 18.4 mph 29.9 mph N/A   Clear
1:53 PM 52.0 °F - 7.0 °F 16% 29.60 in 10.0 mi West 24.2 mph 32.2 mph N/A   Clear
2:53 PM 48.9 °F - 12.0 °F 23% 29.63 in 10.0 mi WSW 18.4 mph - N/A   Clear
3:53 PM 42.1 °F 34.9 °F 16.0 °F 35% 29.65 in 10.0 mi SW 13.8 mph 21.9 mph N/A   Clear
4:53 PM 37.9 °F 29.2 °F 19.0 °F 47% 29.65 in 10.0 mi SSW 15.0 mph - N/A   Clear
5:53 PM 36.0 °F 28.5 °F 19.9 °F 52% 29.65 in 10.0 mi SSW 10.4 mph - N/A   Clear
6:53 PM 35.1 °F 25.5 °F 21.9 °F 59% 29.70 in 10.0 mi South 15.0 mph - N/A   Clear
7:53 PM 35.1 °F 25.5 °F 21.9 °F 59% 29.66 in 10.0 mi South 15.0 mph - N/A   Clear
8:53 PM 35.1 °F 25.5 °F 21.9 °F 59% 29.64 in 10.0 mi South 15.0 mph - N/A   Clear
9:53 PM 34.0 °F 23.8 °F 21.9 °F 61% 29.58 in 10.0 mi South 16.1 mph - N/A   Clear
10:53 PM 34.0 °F 23.8 °F 23.0 °F 64% 29.56 in 10.0 mi South 16.1 mph - N/A   Partly Cloudy
11:53 PM 34.0 °F 23.8 °F 23.0 °F 64% 29.53 in 10.0 mi South 16.1 mph - N/A   Clear